Terminal Aerodrome Forecast
Issued by NWS

Home | Current Version | Previous Version | Text Only | Print | Product List | Glossary On
Versions: 1 2 3 4 5 6 7 8 9 10 11 12 13 14 15 16 17 18 19 20 21 22 23 24 25 26 27 28 29 30 31 32 33 34 35 36 37 38 39 40 41 42
000
FTUS41 KBOX 231452 AAA
TAFMHT
TAF AMD
KMHT 231452Z 2315/2412 35011G22KT 2SM +RA BR SCT008 OVC012
      WS020/04045KT
     FM231700 36010G21KT 6SM -SHRA BR FEW008 OVC015
     FM240200 35010G22KT 3SM BR OVC010
     FM241000 33008KT 3SM BR OVC015=

USA.gov is the U.S. government's official web portal to all federal, state and local government web resources and services.